カタログに戻る

COSMOS 2499 DEB

運用中PO
NORAD 56573·DEBRIS·🇷🇺 Russia

打ち上げ May 23, 2014 から Plesetsk Cosmodrome

Loading…

次のパス (今後24時間)

TLE

最新Source: Space-Track

元期: Sep 11, 2026, 06:39 UTC

1 56573U 14028BG  26254.27723324  .00006885  00000-0  85482-2 0  9996
2 56573  82.2288  93.7406 0355454 259.0829  97.0129 13.41223688176727

AllMySatでCOSMOS 2499 DEBをリアルタイム追跡

Download on the App Store